Find Starlink 4359

NORAD ID: 53226 Int'l Des: 2022-084 Owner: SPXS Country: US Constellation: starlink operational
LEOCIRCULARRETROGRADESSO

Current View

Loading 3D Globe...

About Starlink 4359

Description loading...

Upcoming Passes

Passes for default location (London). Set your location on the main map for personalized predictions.

Altitude History

Loading altitude history...

Two-Line Element Set

1 53226U 22084AP 26150.06162447 .00040282 00000-0 27939-2 0 9996
2 53226 97.4256 209.8157 0002561 176.9390 183.1853 15.05464001211553
Epoch: May 30, 2026 • Age: 9 hours

Current Status

Altitude 560.0 km
Velocity 7.58 km/s
Sub-Earth Point -30.40°S, 17.94°W
Launch Date Jul 22, 2022
Age 3.8 years
Type internet

Technical Details

Classification Payload
Mass 297.00 kg
Dry Mass 275.00 kg
Total Mass 297.00 kg
Length 0.20 m
Diameter 2.80 m
Span 9.00 m
Shape Box + pan
Manufacturer SPXS
Bus Type Starlink
Phase Status In Orbit
Owner/State SPXS/US

Most Searched